{"data":{"norad_id":58979,"epoch":"2026-05-24T22:15:33.420960Z","epoch_age_seconds":88215,"freshness":"FRESH","line1":"1 58979U 24031Q   26144.92747015  .00001019  00000+0  46508-4 0  9997","line2":"2 58979  53.1616 302.7072 0000998  75.6127 284.4985 15.30197968128186","mean_motion":15.30197968,"eccentricity":9.98e-5,"inclination_deg":53.1616,"raan_deg":302.7072,"arg_perigee_deg":75.6127,"mean_anomaly_deg":284.4985,"bstar":4.6508e-5,"rev_number":12818,"period_min":94.105470672014,"perigee_km":474.53717146973,"apogee_km":475.9051017538,"semimajor_km":6853.3581366118,"source":"CELESTRAK","updated_at":"2026-05-25T13:38:18.796076Z"}}